EDDL

Dusseldorf

Airport
ICAO code
EDDL
Summary
ICAO Region
EUR
ICAO Territory
Location

Düsseldorf,

Elevation
147 ft
Coordinates
51° 17' 22" N , 6° 46' 0" E
KCC
Metar
EDDL 270920Z AUTO 26008KT 230V290 9999 SCT027 BKN037 BKN049 17/11 Q1018 NOSIG

Description

International airport serving Düsseldorf.

Climatology

Temperate Marine climate/Oceanic climate (Köppen climate classification Cfb) - Moderately cool summer and comparatively warm winter.

Runways

Designator Length Width Surface Rops
05L/23R 2700 45 CON Yes/Yes
05R/23L 3000 45 CON Yes/Yes

Airport map

Aerial View

SKYbrary Partners:

Safety knowledge contributed by: